• en Suisse
  • Liste des pays
  • À 7 jours
  • Température de l'eau
  • Carte satellitaire
  • Carte météo
  • Widgets météo
  • user-avatar
    Se connecter

    Météo par heure à Serdyuky

    Ce jour, 26 Avril, Jeudi

    Heure Température Précipitation Vent Pression Humidité
    00:00 +15°C° 0,2 mm 4 m/s 738 mmHg 83%
    01:00 +15°C° 0,2 mm 4 m/s 738 mmHg 85%
    02:00 +14°C° 0 mm 3 m/s 738 mmHg 91%
    03:00 +13°C° 0 mm 4 m/s 738 mmHg 91%
    04:00 +13°C° 0 mm 4 m/s 738 mmHg 91%
    05:00 +12°C° 0 mm 4 m/s 739 mmHg 91%
    06:00 +13°C° 0 mm 5 m/s 739 mmHg 84%
    07:00 +13°C° 0 mm 5 m/s 740 mmHg 78%
    08:00 +14°C° 0 mm 6 m/s 741 mmHg 70%
    09:00 +14°C° 0 mm 6 m/s 741 mmHg 64%
    10:00 +15°C° 0 mm 6 m/s 741 mmHg 59%
    11:00 +15°C° 0 mm 6 m/s 742 mmHg 53%
    12:00 +16°C° 0 mm 6 m/s 742 mmHg 49%
    13:00 +17°C° 0 mm 5 m/s 742 mmHg 45%
    14:00 +17°C° 0 mm 5 m/s 742 mmHg 41%
    15:00 +17°C° 0 mm 4 m/s 742 mmHg 45%
    16:00 +17°C° 0 mm 4 m/s 742 mmHg 48%
    17:00 +16°C° 0 mm 3 m/s 743 mmHg 51%
    18:00 +14°C° 0 mm 3 m/s 743 mmHg 56%
    19:00 +14°C° 0 mm 2 m/s 743 mmHg 61%
    20:00 +13°C° 0 mm 2 m/s 743 mmHg 66%
    21:00 +12°C° 0,2 mm 2 m/s 743 mmHg 72%
    22:00 +12°C° 0,2 mm 2 m/s 743 mmHg 77%
    23:00 +10°C° 0,2 mm 2 m/s 743 mmHg 82%

    Demain, 27 Avril, Vendredi

    Heure Température Précipitation Vent Pression Humidité
    00:00 +10°C° 0,1 mm 2 m/s 743 mmHg 84%
    01:00 +10°C° 0,1 mm 2 m/s 743 mmHg 86%
    02:00 +10°C° 0,1 mm 2 m/s 743 mmHg 88%
    03:00 +10°C° 0,6 mm 2 m/s 743 mmHg 90%
    04:00 +9°C° 0,6 mm 2 m/s 743 mmHg 91%
    05:00 +9°C° 0,6 mm 2 m/s 744 mmHg 93%
    06:00 +10°C° 0,2 mm 3 m/s 744 mmHg 88%
    07:00 +10°C° 0,2 mm 3 m/s 744 mmHg 84%
    08:00 +11°C° 0,2 mm 3 m/s 744 mmHg 79%
    09:00 +12°C° 0 mm 4 m/s 745 mmHg 70%
    10:00 +13°C° 0 mm 4 m/s 745 mmHg 62%
    11:00 +15°C° 0 mm 4 m/s 745 mmHg 53%
    12:00 +15°C° 0 mm 4 m/s 745 mmHg 50%
    13:00 +17°C° 0 mm 4 m/s 745 mmHg 47%
    14:00 +16°C° 0 mm 5 m/s 745 mmHg 44%
    15:00 +17°C° 0 mm 4 m/s 745 mmHg 44%
    16:00 +17°C° 0 mm 4 m/s 746 mmHg 45%
    17:00 +17°C° 0 mm 4 m/s 746 mmHg 45%
    18:00 +14°C° 0 mm 3 m/s 746 mmHg 51%
    19:00 +12°C° 0 mm 3 m/s 746 mmHg 57%
    20:00 +12°C° 0 mm 2 m/s 747 mmHg 63%
    21:00 +10°C° 0 mm 2 m/s 747 mmHg 66%
    22:00 +10°C° 0 mm 1 m/s 747 mmHg 70%
    23:00 +9°C° 0 mm 1 m/s 748 mmHg 74%

    Après-demain, 28 Avril, Samedi

    Heure Température Précipitation Vent Pression Humidité
    00:00 +9°C° 0 mm 1 m/s 748 mmHg 75%
    01:00 +9°C° 0 mm 1 m/s 748 mmHg 76%
    02:00 +7°C° 0 mm 0 m/s 748 mmHg 77%
    03:00 +8°C° 0 mm 1 m/s 748 mmHg 78%
    04:00 +8°C° 0 mm 1 m/s 748 mmHg 79%
    05:00 +7°C° 0 mm 1 m/s 749 mmHg 80%
    06:00 +9°C° 0 mm 1 m/s 749 mmHg 74%
    07:00 +10°C° 0 mm 2 m/s 749 mmHg 67%
    08:00 +13°C° 0 mm 2 m/s 749 mmHg 61%
    09:00 +15°C° 0 mm 2 m/s 749 mmHg 55%
    10:00 +17°C° 0 mm 3 m/s 749 mmHg 49%
    11:00 +18°C° 0 mm 3 m/s 749 mmHg 43%
    12:00 +19°C° 0 mm 3 m/s 749 mmHg 42%
    13:00 +20°C° 0 mm 3 m/s 748 mmHg 41%
    14:00 +21°C° 0 mm 3 m/s 748 mmHg 39%
    15:00 +21°C° 0 mm 4 m/s 747 mmHg 42%
    16:00 +21°C° 0 mm 4 m/s 747 mmHg 44%
    17:00 +21°C° 0 mm 4 m/s 747 mmHg 47%
    18:00 +19°C° 0 mm 3 m/s 747 mmHg 55%
    19:00 +17°C° 0 mm 3 m/s 747 mmHg 64%
    20:00 +14°C° 0 mm 3 m/s 747 mmHg 73%
    21:00 +14°C° 0 mm 3 m/s 747 mmHg 76%
    22:00 +13°C° 0 mm 3 m/s 747 mmHg 79%
    23:00 +13°C° 0 mm 3 m/s 747 mmHg 82%

    29 Avril, Dimanche

    Heure Température Précipitation Vent Pression Humidité
    00:00 +13°C° 0 mm 3 m/s 747 mmHg 84%
    01:00 +12°C° 0 mm 3 m/s 747 mmHg 86%
    02:00 +12°C° 0 mm 3 m/s 747 mmHg 88%
    03:00 +12°C° 0 mm 3 m/s 747 mmHg 89%
    04:00 +12°C° 0 mm 3 m/s 747 mmHg 89%
    05:00 +12°C° 0 mm 3 m/s 747 mmHg 89%
    06:00 +13°C° 0 mm 3 m/s 747 mmHg 83%
    07:00 +15°C° 0 mm 4 m/s 747 mmHg 77%
    08:00 +17°C° 0 mm 4 m/s 747 mmHg 71%
    09:00 +19°C° 0 mm 4 m/s 747 mmHg 66%
    10:00 +21°C° 0 mm 4 m/s 747 mmHg 61%
    11:00 +23°C° 0 mm 5 m/s 747 mmHg 56%
    12:00 +25°C° 0 mm 5 m/s 747 mmHg 52%
    13:00 +26°C° 0 mm 5 m/s 746 mmHg 48%
    14:00 +27°C° 0 mm 5 m/s 746 mmHg 44%
    15:00 +27°C° 0 mm 5 m/s 746 mmHg 45%
    16:00 +27°C° 0 mm 5 m/s 746 mmHg 46%
    17:00 +26°C° 0 mm 4 m/s 745 mmHg 47%
    18:00 +23°C° 0 mm 4 m/s 745 mmHg 52%
    19:00 +21°C° 0 mm 4 m/s 745 mmHg 57%
    20:00 +19°C° 0 mm 4 m/s 745 mmHg 62%
    21:00 +18°C° 0 mm 4 m/s 745 mmHg 62%
    22:00 +17°C° 0 mm 4 m/s 745 mmHg 63%
    23:00 +17°C° 0 mm 4 m/s 745 mmHg 64%

    30 Avril, Lundi

    Heure Température Précipitation Vent Pression Humidité
    00:00 +15°C° 0 mm 4 m/s 745 mmHg 65%
    01:00 +14°C° 0 mm 4 m/s 745 mmHg 66%
    02:00 +14°C° 0 mm 4 m/s 745 mmHg 67%
    03:00 +13°C° 0 mm 4 m/s 745 mmHg 67%
    04:00 +13°C° 0 mm 4 m/s 745 mmHg 66%
    05:00 +12°C° 0 mm 4 m/s 745 mmHg 66%
    06:00 +13°C° 0 mm 4 m/s 745 mmHg 61%
    07:00 +15°C° 0 mm 5 m/s 745 mmHg 56%
    08:00 +16°C° 0 mm 6 m/s 745 mmHg 52%
    09:00 +19°C° 0 mm 6 m/s 745 mmHg 48%
    10:00 +21°C° 0 mm 6 m/s 744 mmHg 43%
    11:00 +23°C° 0 mm 6 m/s 744 mmHg 39%
    12:00 +23°C° 0 mm 6 m/s 744 mmHg 38%
    13:00 +24°C° 0 mm 6 m/s 744 mmHg 37%
    14:00 +26°C° 0 mm 6 m/s 744 mmHg 36%
    15:00 +26°C° 0 mm 5 m/s 743 mmHg 38%
    16:00 +26°C° 0 mm 5 m/s 743 mmHg 40%
    17:00 +25°C° 0 mm 5 m/s 743 mmHg 42%
    18:00 +22°C° 0 mm 4 m/s 743 mmHg 50%
    19:00 +20°C° 0 mm 4 m/s 743 mmHg 57%
    20:00 +18°C° 0 mm 3 m/s 743 mmHg 64%
    21:00 +18°C° 0 mm 3 m/s 743 mmHg 65%
    22:00 +17°C° 0 mm 4 m/s 743 mmHg 66%
    23:00 +15°C° 0 mm 4 m/s 744 mmHg 67%

    1 Mai, Mardi

    Heure Température Précipitation Vent Pression Humidité
    00:00 +15°C° 0 mm 4 m/s 744 mmHg 68%
    01:00 +14°C° 0 mm 4 m/s 744 mmHg 69%
    02:00 +14°C° 0 mm 3 m/s 744 mmHg 70%
    03:00 +13°C° 0 mm 3 m/s 744 mmHg 72%
    04:00 +13°C° 0 mm 3 m/s 744 mmHg 73%
    05:00 +12°C° 0 mm 3 m/s 744 mmHg 74%
    06:00 +14°C° 0 mm 3 m/s 745 mmHg 70%
    07:00 +16°C° 0 mm 3 m/s 745 mmHg 66%
    08:00 +18°C° 0 mm 2 m/s 745 mmHg 62%
    09:00 +20°C° 0 mm 2 m/s 745 mmHg 58%
    10:00 +23°C° 0 mm 2 m/s 746 mmHg 53%
    11:00 +25°C° 0 mm 2 m/s 746 mmHg 49%
    12:00 +26°C° 0 mm 2 m/s 746 mmHg 46%
    13:00 +27°C° 0 mm 2 m/s 746 mmHg 43%
    14:00 +27°C° 0 mm 2 m/s 745 mmHg 40%
    15:00 +27°C° 0 mm 2 m/s 745 mmHg 41%
    16:00 +27°C° 0 mm 2 m/s 745 mmHg 42%
    17:00 +27°C° 0 mm 2 m/s 745 mmHg 43%
    18:00 +24°C° 0 mm 2 m/s 745 mmHg 49%
    19:00 +21°C° 0 mm 2 m/s 745 mmHg 55%
    20:00 +19°C° 0 mm 2 m/s 745 mmHg 61%
    21:00 +18°C° 0 mm 2 m/s 745 mmHg 62%
    22:00 +17°C° 0 mm 2 m/s 745 mmHg 64%
    23:00 +17°C° 0 mm 2 m/s 745 mmHg 65%
    Voir plus